| time (UTC) | temp F | wind direction | speed MPH | gust MPH | rain 1hr in | rain 24hr in | rain mn in | humidity % | barometer mb |
| 20260505004535 | 53 | 266 | 6.0 | 14.0 | 0.00 | 0.00 | 0.00 | 39 | 1003.3 |
| 20260505004016 | 53 | 335 | 6.0 | 17.0 | 0.00 | 0.00 | 0.00 | 38 | 1003.4 |
| 20260505003521 | 53 | 289 | 8.0 | 17.0 | 0.00 | 0.00 | 0.00 | 38 | 1003.2 |
| 20260505003032 | 54 | 279 | 6.0 | 18.0 | 0.00 | 0.00 | 0.00 | 39 | 1003.0 |
| 20260505002518 | 54 | 337 | 9.0 | 18.0 | 0.00 | 0.00 | 0.00 | 37 | 1003.1 |
| 20260505002018 | 54 | 342 | 8.0 | 19.0 | 0.00 | 0.00 | 0.00 | 37 | 1003.1 |
| 20260505001534 | 54 | 297 | 10.0 | 19.0 | 0.00 | 0.00 | 0.00 | 37 | 1002.8 |
| 20260505001017 | 55 | 279 | 5.0 | 18.0 | 0.00 | 0.00 | 0.00 | 37 | 1002.8 |
| 20260505000517 | 55 | 304 | 6.0 | 19.0 | 0.00 | 0.00 | 0.00 | 36 | 1002.7 |
| 20260505000043 | 55 | 3 | 5.0 | 19.0 | 0.00 | 0.00 | 0.00 | 38 | 1002.6 |
| 20260504235517 | 55 | 269 | 8.0 | 19.0 | 0.00 | 0.00 | 0.00 | 37 | 1002.6 |
| 20260504235018 | 55 | 272 | 10.0 | 19.0 | 0.00 | 0.00 | 0.00 | 37 | 1002.4 |
| 20260504234537 | 55 | 273 | 5.0 | 19.0 | 0.00 | 0.00 | 0.00 | 38 | 1002.5 |
| 20260504234017 | 55 | 277 | 9.0 | 22.0 | 0.00 | 0.00 | 0.00 | 37 | 1002.4 |
| 20260504233518 | 55 | 296 | 9.0 | 22.0 | 0.00 | 0.00 | 0.00 | 37 | 1002.2 |
| 20260504233038 | 56 | 281 | 7.0 | 15.0 | 0.00 | 0.00 | 0.00 | 38 | 1002.2 |
| 20260504232518 | 56 | 263 | 7.0 | 16.0 | 0.00 | 0.00 | 0.00 | 38 | 1002.1 |
| 20260504232016 | 56 | 304 | 6.0 | 22.0 | 0.00 | 0.00 | 0.00 | 36 | 1002.1 |
| 20260504231536 | 56 | 271 | 8.0 | 22.0 | 0.00 | 0.00 | 0.00 | 38 | 1002.1 |
| 20260504231017 | 57 | 236 | 11.0 | 22.0 | 0.00 | 0.00 | 0.00 | 36 | 1002.1 |
| 20260504230517 | 57 | 265 | 5.0 | 20.0 | 0.00 | 0.00 | 0.00 | 38 | 1001.9 |
| 20260504230034 | 57 | 313 | 8.0 | 20.0 | 0.00 | 0.00 | 0.00 | 38 | 1001.9 |
| 20260504225519 | 57 | 332 | 9.0 | 19.0 | 0.00 | 0.00 | 0.00 | 37 | 1001.8 |
| 20260504225016 | 58 | 284 | 10.0 | 24.0 | 0.00 | 0.00 | 0.00 | 37 | 1001.8 |
| 20260504224533 | 58 | 324 | 13.0 | 24.0 | 0.00 | 0.00 | 0.00 | 37 | 1001.7 |
| 20260504224016 | 58 | 296 | 9.0 | 17.0 | 0.00 | 0.00 | 0.00 | 37 | 1001.6 |
| 20260504223514 | 58 | 327 | 8.0 | 23.0 | 0.00 | 0.00 | 0.00 | 39 | 1001.5 |
| 20260504223034 | 58 | 288 | 11.0 | 23.0 | 0.00 | 0.00 | 0.00 | 36 | 1001.4 |
| 20260504222517 | 59 | 270 | 12.0 | 22.0 | 0.00 | 0.00 | 0.00 | 37 | 1001.3 |
| 20260504222017 | 59 | 267 | 5.0 | 23.0 | 0.00 | 0.00 | 0.00 | 38 | 1001.1 |
| 20260504221533 | 58 | 342 | 10.0 | 23.0 | 0.00 | 0.00 | 0.00 | 39 | 1001.1 |
| 20260504221017 | 59 | 288 | 8.0 | 23.0 | 0.00 | 0.00 | 0.00 | 38 | 1001.0 |
| 20260504220523 | 59 | 276 | 7.0 | 24.0 | 0.00 | 0.00 | 0.00 | 38 | 1001.0 |
| 20260504220035 | 59 | 261 | 12.0 | 24.0 | 0.00 | 0.00 | 0.00 | 38 | 1001.0 |
| 20260504215517 | 59 | 258 | 9.0 | 19.0 | 0.00 | 0.00 | 0.00 | 38 | 1000.8 |
| 20260504215016 | 60 | 328 | 6.0 | 20.0 | 0.00 | 0.00 | 0.00 | 40 | 1000.6 |
| 20260504214534 | 61 | 341 | 10.0 | 20.0 | 0.00 | 0.00 | 0.00 | 37 | 1000.7 |
| 20260504214016 | 61 | 355 | 7.0 | 20.0 | 0.00 | 0.00 | 0.00 | 38 | 1000.4 |
| 20260504213518 | 61 | 314 | 10.0 | 20.0 | 0.00 | 0.00 | 0.00 | 35 | 1000.4 |
| 20260504213034 | 62 | 242 | 6.0 | 20.0 | 0.00 | 0.00 | 0.00 | 38 | 1000.2 |
| 20260504212521 | 62 | 265 | 7.0 | 19.0 | 0.00 | 0.00 | 0.00 | 37 | 1000.4 |
| 20260504212015 | 61 | 299 | 7.0 | 18.0 | 0.00 | 0.00 | 0.00 | 40 | 1000.1 |
| 20260504211537 | 61 | 306 | 7.0 | 18.0 | 0.00 | 0.00 | 0.00 | 42 | 1000.1 |
| 20260504211017 | 60 | 11 | 5.0 | 19.0 | 0.00 | 0.00 | 0.00 | 38 | 1000.1 |
| 20260504210519 | 61 | 276 | 8.0 | 26.0 | 0.00 | 0.00 | 0.00 | 38 | 1000.1 |
| 20260504210042 | 61 | 262 | 11.0 | 26.0 | 0.00 | 0.00 | 0.00 | 36 | 1000.1 |
| 20260504205517 | 61 | 289 | 10.0 | 25.0 | 0.00 | 0.00 | 0.00 | 36 | 999.9 |
| 20260504205018 | 62 | 319 | 10.0 | 25.0 | 0.00 | 0.00 | 0.00 | 38 | 999.9 |
| 20260504204533 | 62 | 288 | 9.0 | 21.0 | 0.00 | 0.00 | 0.00 | 37 | 999.8 |
| 20260504204020 | 62 | 310 | 10.0 | 21.0 | 0.00 | 0.00 | 0.00 | 38 | 999.8 |
| 20260504203517 | 62 | 282 | 10.0 | 19.0 | 0.00 | 0.00 | 0.00 | 38 | 999.6 |
| 20260504203050 | 62 | 294 | 8.0 | 19.0 | 0.00 | 0.00 | 0.00 | 38 | 999.6 |
| 20260504202518 | 62 | 298 | 7.0 | 19.0 | 0.00 | 0.00 | 0.00 | 40 | 999.5 |
| 20260504202017 | 62 | 293 | 9.0 | 19.0 | 0.00 | 0.00 | 0.00 | 37 | 999.7 |
| 20260504201534 | 62 | 268 | 5.0 | 21.0 | 0.00 | 0.00 | 0.00 | 39 | 999.7 |
| 20260504201023 | 63 | 281 | 8.0 | 21.0 | 0.00 | 0.00 | 0.00 | 38 | 999.6 |
| 20260504200517 | 63 | 290 | 9.0 | 21.0 | 0.00 | 0.00 | 0.00 | 37 | 999.6 |
| 20260504200035 | 63 | 350 | 7.0 | 28.0 | 0.00 | 0.00 | 0.00 | 37 | 999.6 |
| 20260504195517 | 63 | 287 | 12.0 | 28.0 | 0.00 | 0.00 | 0.00 | 39 | 999.4 |
| 20260504195017 | 64 | 267 | 7.0 | 24.0 | 0.00 | 0.00 | 0.00 | 36 | 999.3 |
| 20260504194535 | 64 | 272 | 10.0 | 24.0 | 0.00 | 0.00 | 0.00 | 36 | 999.3 |
| 20260504194017 | 64 | 214 | 10.0 | 19.0 | 0.00 | 0.00 | 0.00 | 36 | 999.2 |
| 20260504193517 | 64 | 264 | 7.0 | 19.0 | 0.00 | 0.00 | 0.00 | 35 | 999.1 |
| 20260504193035 | 65 | 299 | 6.0 | 19.0 | 0.00 | 0.00 | 0.00 | 39 | 999.1 |
| 20260504192516 | 65 | 317 | 8.0 | 17.0 | 0.00 | 0.00 | 0.00 | 36 | 999.1 |
| 20260504192017 | 65 | 342 | 10.0 | 17.0 | 0.00 | 0.00 | 0.00 | 37 | 998.9 |
| 20260504191534 | 65 | 269 | 6.0 | 17.0 | 0.00 | 0.00 | 0.00 | 35 | 999.0 |
| 20260504191017 | 65 | 313 | 8.0 | 19.0 | 0.00 | 0.00 | 0.00 | 35 | 998.9 |
| 20260504190517 | 65 | 292 | 9.0 | 19.0 | 0.00 | 0.00 | 0.00 | 35 | 998.8 |
| 20260504190042 | 65 | 284 | 8.0 | 26.0 | 0.00 | 0.00 | 0.00 | 35 | 998.6 |
| 20260504185516 | 66 | 277 | 9.0 | 26.0 | 0.00 | 0.00 | 0.00 | 33 | 998.5 |
| 20260504185016 | 66 | 264 | 10.0 | 21.0 | 0.00 | 0.00 | 0.00 | 34 | 998.5 |
| 20260504184535 | 66 | 245 | 9.0 | 21.0 | 0.00 | 0.00 | 0.00 | 34 | 998.4 |
| 20260504184016 | 66 | 257 | 7.0 | 19.0 | 0.00 | 0.00 | 0.00 | 36 | 998.6 |
| 20260504183517 | 66 | 284 | 11.0 | 19.0 | 0.00 | 0.00 | 0.00 | 33 | 998.4 |
| 20260504183034 | 66 | 293 | 5.0 | 21.0 | 0.00 | 0.00 | 0.00 | 35 | 998.5 |
| 20260504182526 | 66 | 259 | 9.0 | 26.0 | 0.00 | 0.00 | 0.00 | 33 | 998.3 |
| 20260504182022 | 66 | 301 | 10.0 | 26.0 | 0.00 | 0.00 | 0.00 | 34 | 998.2 |
| 20260504181535 | 66 | 238 | 9.0 | 26.0 | 0.00 | 0.00 | 0.00 | 35 | 998.2 |
| 20260504181016 | 66 | 281 | 7.0 | 29.0 | 0.00 | 0.00 | 0.00 | 37 | 998.2 |
| 20260504180518 | 65 | 278 | 13.0 | 29.0 | 0.00 | 0.00 | 0.00 | 37 | 998.2 |
| 20260504180036 | 65 | 267 | 11.0 | 26.0 | 0.00 | 0.00 | 0.00 | 37 | 998.2 |
| 20260504175516 | 65 | 230 | 12.0 | 26.0 | 0.00 | 0.00 | 0.00 | 38 | 998.0 |
| 20260504175017 | 65 | 245 | 9.0 | 30.0 | 0.00 | 0.00 | 0.00 | 36 | 997.8 |
| 20260504174532 | 65 | 233 | 6.0 | 30.0 | 0.00 | 0.00 | 0.00 | 40 | 998.1 |
| 20260504174017 | 65 | 281 | 12.0 | 30.0 | 0.00 | 0.00 | 0.00 | 37 | 998.1 |
| 20260504173518 | 65 | 237 | 5.0 | 18.0 | 0.00 | 0.00 | 0.00 | 40 | 997.8 |
| 20260504173035 | 64 | 317 | 7.0 | 23.0 | 0.00 | 0.00 | 0.00 | 44 | 997.8 |
| 20260504172517 | 64 | 247 | 9.0 | 24.0 | 0.00 | 0.00 | 0.00 | 39 | 997.9 |
| 20260504172016 | 64 | 284 | 11.0 | 25.0 | 0.00 | 0.00 | 0.00 | 35 | 998.0 |
| 20260504171532 | 65 | 253 | 11.0 | 25.0 | 0.00 | 0.00 | 0.00 | 36 | 997.9 |
| 20260504171018 | 65 | 244 | 8.0 | 21.0 | 0.00 | 0.00 | 0.00 | 36 | 997.9 |
| 20260504170517 | 65 | 342 | 10.0 | 21.0 | 0.00 | 0.00 | 0.00 | 35 | 997.8 |
| 20260504151017 | 63 | 278 | 8.0 | 20.0 | 0.00 | 0.00 | 0.00 | 37 | 997.4 |
| 20260504150516 | 64 | 280 | 8.0 | 20.0 | 0.00 | 0.00 | 0.00 | 37 | 997.5 |
| 20260504141018 | 63 | 294 | 8.0 | 17.0 | 0.00 | 0.00 | 0.00 | 44 | 997.2 |
| 20260504140520 | 63 | 299 | 6.0 | 17.0 | 0.00 | 0.00 | 0.00 | 46 | 997.0 |
| 20260504130516 | 62 | 273 | 5.0 | 13.0 | 0.00 | 0.00 | 0.00 | 47 | 996.4 |
| 20260504110515 | 55 | 234 | 5.0 | 15.0 | 0.00 | 0.00 | 0.00 | 52 | 995.3 |
| 20260504100518 | 54 | 229 | 4.0 | 16.0 | 0.00 | 0.00 | 0.00 | 53 | 995.9 |
| 20260504081535 | 52 | 219 | 3.0 | 9.0 | 0.00 | 0.00 | 0.00 | 57 | 997.8 |
| 20260504081015 | 52 | 225 | 2.0 | 6.0 | 0.00 | 0.00 | 0.00 | 58 | 997.9 |
| 20260504080515 | 52 | 221 | 2.0 | 6.0 | 0.00 | 0.00 | 0.00 | 58 | 998.0 |
| 20260504050518 | 49 | 224 | 2.0 | 4.0 | 0.00 | 0.00 | 0.00 | 66 | 1001.4 |
| 20260504045518 | 49 | 224 | 2.0 | 5.0 | 0.00 | 0.00 | 0.00 | 65 | 1001.6 |
| 20260504045017 | 49 | 224 | 2.0 | 5.0 | 0.00 | 0.00 | 0.00 | 65 | 1001.7 |
| 20260504044534 | 49 | 0 | 0.0 | 3.0 | 0.00 | 0.00 | 0.00 | 64 | 1001.9 |
| 20260504044021 | 50 | 0 | 0.0 | 2.0 | 0.00 | 0.00 | 0.00 | 63 | 1001.8 |
| 20260504043517 | 50 | 0 | 0.0 | 3.0 | 0.00 | 0.00 | 0.00 | 63 | 1001.9 |
| 20260504043032 | 50 | 224 | 0.0 | 3.0 | 0.00 | 0.00 | 0.00 | 62 | 1002.0 |
| 20260504042517 | 50 | 224 | 1.0 | 3.0 | 0.00 | 0.00 | 0.00 | 62 | 1002.0 |
| 20260504042018 | 50 | 224 | 1.0 | 3.0 | 0.00 | 0.00 | 0.00 | 62 | 1002.0 |
| 20260504041534 | 50 | 224 | 2.0 | 3.0 | 0.00 | 0.00 | 0.00 | 62 | 1002.2 |
| 20260504041017 | 50 | 224 | 2.0 | 4.0 | 0.00 | 0.00 | 0.00 | 62 | 1002.2 |
| 20260504040515 | 51 | 223 | 2.0 | 4.0 | 0.00 | 0.00 | 0.00 | 61 | 1002.3 |
| 20260504040034 | 51 | 226 | 2.0 | 5.0 | 0.00 | 0.00 | 0.00 | 61 | 1002.4 |
| 20260504035515 | 51 | 225 | 2.0 | 5.0 | 0.00 | 0.00 | 0.00 | 60 | 1002.6 |
| 20260504035015 | 51 | 225 | 3.0 | 5.0 | 0.00 | 0.00 | 0.00 | 59 | 1002.7 |
| 20260504034533 | 51 | 226 | 2.0 | 4.0 | 0.00 | 0.00 | 0.00 | 59 | 1002.8 |
| 20260504034021 | 51 | 226 | 2.0 | 4.0 | 0.00 | 0.00 | 0.00 | 58 | 1002.8 |
| 20260504033514 | 51 | 224 | 2.0 | 4.0 | 0.00 | 0.00 | 0.00 | 57 | 1003.0 |
| 20260504033038 | 52 | 224 | 2.0 | 4.0 | 0.00 | 0.00 | 0.00 | 56 | 1003.0 |
| 20260504032518 | 52 | 224 | 2.0 | 4.0 | 0.00 | 0.00 | 0.00 | 55 | 1003.1 |
| 20260504032015 | 52 | 224 | 1.0 | 3.0 | 0.00 | 0.00 | 0.00 | 53 | 1003.1 |
| 20260504031534 | 52 | 224 | 1.0 | 3.0 | 0.00 | 0.00 | 0.00 | 53 | 1003.2 |
| 20260504031017 | 53 | 224 | 1.0 | 2.0 | 0.00 | 0.00 | 0.00 | 52 | 1003.2 |
| 20260504030517 | 53 | 0 | 0.0 | 0.0 | 0.00 | 0.00 | 0.00 | 53 | 1003.3 |
| 20260504030034 | 53 | 0 | 0.0 | 0.0 | 0.00 | 0.00 | 0.00 | 52 | 1003.3 |
| 20260504025520 | 54 | 0 | 0.0 | 0.0 | 0.00 | 0.00 | 0.00 | 51 | 1003.4 |
| 20260504025017 | 54 | 0 | 0.0 | 0.0 | 0.00 | 0.00 | 0.00 | 51 | 1003.4 |
| 20260504024535 | 54 | 0 | 0.0 | 0.0 | 0.00 | 0.00 | 0.00 | 50 | 1003.3 |
| 20260504024018 | 55 | 0 | 0.0 | 0.0 | 0.00 | 0.00 | 0.00 | 50 | 1003.3 |
| 20260504023518 | 55 | 0 | 0.0 | 0.0 | 0.00 | 0.00 | 0.00 | 50 | 1003.4 |
| 20260504023035 | 56 | 0 | 0.0 | 0.0 | 0.00 | 0.00 | 0.00 | 48 | 1003.4 |
| 20260504022521 | 56 | 0 | 0.0 | 0.0 | 0.00 | 0.00 | 0.00 | 47 | 1003.4 |
| 20260504022018 | 57 | 0 | 0.0 | 0.0 | 0.00 | 0.00 | 0.00 | 47 | 1003.4 |
| 20260504021535 | 57 | 0 | 0.0 | 0.0 | 0.00 | 0.00 | 0.00 | 45 | 1003.4 |
| 20260504021017 | 58 | 0 | 0.0 | 0.0 | 0.00 | 0.00 | 0.00 | 45 | 1003.4 |
| 20260504020518 | 58 | 0 | 0.0 | 0.0 | 0.00 | 0.00 | 0.00 | 45 | 1003.4 |
| 20260504020034 | 59 | 0 | 0.0 | 0.0 | 0.00 | 0.00 | 0.00 | 44 | 1003.4 |
| 20260504015518 | 59 | 0 | 0.0 | 0.0 | 0.00 | 0.00 | 0.00 | 43 | 1003.3 |
| 20260504015026 | 60 | 0 | 0.0 | 0.0 | 0.00 | 0.00 | 0.00 | 41 | 1003.3 |
| 20260504014545 | 61 | 0 | 0.0 | 0.0 | 0.00 | 0.00 | 0.00 | 41 | 1003.4 |
| 20260504014021 | 61 | 0 | 0.0 | 0.0 | 0.00 | 0.00 | 0.00 | 40 | 1003.4 |
| 20260504013518 | 62 | 0 | 0.0 | 0.0 | 0.00 | 0.00 | 0.00 | 40 | 1003.4 |
| 20260504013041 | 63 | 0 | 0.0 | 0.0 | 0.00 | 0.00 | 0.00 | 36 | 1003.5 |
| 20260504012520 | 63 | 0 | 0.0 | 0.0 | 0.00 | 0.00 | 0.00 | 34 | 1003.5 |
| 20260504012018 | 64 | 0 | 0.0 | 0.0 | 0.00 | 0.00 | 0.00 | 33 | 1003.5 |
| 20260504011536 | 64 | 0 | 0.0 | 0.0 | 0.00 | 0.00 | 0.00 | 33 | 1003.5 |
| 20260504011018 | 65 | 0 | 0.0 | 0.0 | 0.00 | 0.00 | 0.00 | 32 | 1003.6 |
| 20260504010522 | 65 | 0 | 0.0 | 0.0 | 0.00 | 0.00 | 0.00 | 31 | 1003.6 |
| 20260504010035 | 66 | 0 | 0.0 | 0.0 | 0.00 | 0.00 | 0.00 | 30 | 1003.7 |
| 20260504005518 | 66 | 0 | 0.0 | 0.0 | 0.00 | 0.00 | 0.00 | 30 | 1003.7 |
| 20260504005018 | 66 | 0 | 0.0 | 4.0 | 0.00 | 0.00 | 0.00 | 28 | 1003.7 |